TimeADT,TemperatureF,Dew PointF,Humidity,Sea Level PressureIn,VisibilityMPH,Wind Direction,Wind SpeedMPH,Gust SpeedMPH,PrecipitationIn,Events,Conditions,WindDirDegrees,DateUTC
12:00 AM,44.6,41.0,87,30.28,15.0,NNE,8.1,-,N/A,,Mostly Cloudy,30,2013-10-12 03:00:00
1:00 AM,44.6,39.2,81,30.28,15.0,NNE,8.1,-,N/A,,Mostly Cloudy,20,2013-10-12 04:00:00
2:00 AM,44.6,37.4,76,30.29,15.0,NE,6.9,-,N/A,,Mostly Cloudy,40,2013-10-12 05:00:00
3:00 AM,41,35,73,30.30,15,NNE,5.8,,,,Partly Cloudy,20,2013-10-12 06:00:00
3:00 AM,41.0,35.6,81,30.30,15.0,NNE,6.9,-,N/A,,Scattered Clouds,30,2013-10-12 06:00:00
4:00 AM,41.0,35.6,81,30.31,15.0,North,4.6,-,N/A,,Scattered Clouds,360,2013-10-12 07:00:00
5:00 AM,39.2,35.6,87,30.33,15.0,NNE,6.9,-,N/A,,Scattered Clouds,20,2013-10-12 08:00:00
6:00 AM,41.0,33.8,76,30.34,15.0,North,4.6,-,N/A,,Mostly Cloudy,360,2013-10-12 09:00:00
7:00 AM,39.2,33.8,81,30.36,15.0,NNE,6.9,-,N/A,,Scattered Clouds,20,2013-10-12 10:00:00
8:00 AM,42.8,35.6,76,30.38,15.0,North,8.1,-,N/A,,Scattered Clouds,10,2013-10-12 11:00:00
9:00 AM,46,36,58,30.39,15,NNE,13.8,,,,Partly Cloudy,30,2013-10-12 12:00:00
9:00 AM,46.4,35.6,66,30.39,15.0,NNE,15.0,-,N/A,,Scattered Clouds,30,2013-10-12 12:00:00
10:00 AM,48.2,35.6,62,30.40,15.0,NNE,19.6,25.3,N/A,,Mostly Cloudy,20,2013-10-12 13:00:00
11:00 AM,48.2,35.6,62,30.42,15.0,North,15.0,21.9,N/A,,Mostly Cloudy,10,2013-10-12 14:00:00
12:00 PM,48.2,33.8,58,30.43,15.0,NNE,15.0,21.9,N/A,,Mostly Cloudy,20,2013-10-12 15:00:00
1:00 PM,46.4,33.8,62,30.43,15.0,NNE,15.0,-,N/A,,Mostly Cloudy,20,2013-10-12 16:00:00
2:00 PM,46.4,33.8,62,30.42,15.0,NNE,12.7,-,N/A,,Mostly Cloudy,20,2013-10-12 17:00:00
3:00 PM,46,32,47,30.42,15,North,11.5,,,,Mostly Cloudy,10,2013-10-12 18:00:00
3:00 PM,46.4,32.0,57,30.42,15.0,North,9.2,17.3,N/A,,Mostly Cloudy,360,2013-10-12 18:00:00
4:00 PM,46.4,32.0,57,30.42,15.0,North,10.4,-,N/A,,Mostly Cloudy,10,2013-10-12 19:00:00
5:00 PM,44.6,33.8,66,30.43,15.0,NNE,9.2,-,N/A,,Mostly Cloudy,30,2013-10-12 20:00:00
6:00 PM,44.6,33.8,66,30.43,15.0,NNE,3.5,-,N/A,,Scattered Clouds,20,2013-10-12 21:00:00
7:00 PM,41.0,32.0,70,30.43,15.0,NNW,4.6,-,N/A,,Partly Cloudy,330,2013-10-12 22:00:00
7:41 PM,35.6,32.0,87,30.43,15.0,NW,3.5,-,N/A,,Partly Cloudy,310,2013-10-12 22:41:00
8:00 PM,35.6,32.0,87,30.43,15.0,NW,3.5,-,N/A,,Partly Cloudy,320,2013-10-12 23:00:00
9:00 PM,37,33,82,30.44,15,West,2.3,,,,Mostly Cloudy,280,2013-10-13 00:00:00
9:00 PM,37.4,33.8,87,30.44,15.0,Calm,Calm,-,N/A,,Mostly Cloudy,0,2013-10-13 00:00:00
9:08 PM,33.8,32.0,93,30.44,15.0,Variable,2.3,-,N/A,,Scattered Clouds,0,2013-10-13 00:08:00
10:00 PM,32.0,30.2,93,30.44,15.0,NW,2.3,-,N/A,,Partly Cloudy,310,2013-10-13 01:00:00
11:00 PM,30.2,30.2,100,30.44,15.0,WNW,4.6,-,N/A,,Partly Cloudy,300,2013-10-13 02:00:00